JST204 NZAA-YSSY

Flight info

Callsign JST204
Flight time 2h 51m
Altitude 38000
Route VELMO DCT 38S163E DCT PLUGA DCT RIKNI N774 MARLN
Aircraft A20N/M-SDE2E3FGHIRWXY/LB1

Departure

Time 2026-04-24 09:05
Airport Auckland International Airport (NZAA)

Arrival

Time 2026-04-24 11:57
Airport Sydney Kingsford Smith International Airport (YSSY)
Time Latitude Longitude Altitude Speed Heading
2026-04-24 08:39 -37.00711 174.78143 19 ft 0 kts 131°
2026-04-24 08:43 -37.00726 174.78138 28 ft 0 kts 109°
2026-04-24 08:58 -37.00722 174.78126 25 ft 4 kts 109°
2026-04-24 08:58 -37.00714 174.78094 30 ft 4 kts 109°
2026-04-24 08:58 -37.00703 174.78058 29 ft 4 kts 130°
2026-04-24 08:59 -37.00690 174.78045 30 ft 4 kts 172°
2026-04-24 08:59 -37.00664 174.78048 27 ft 4 kts 196°
2026-04-24 08:59 -37.00650 174.78053 27 ft 0 kts 196°
2026-04-24 09:01 -37.00652 174.78052 28 ft 1 kts 196°
2026-04-24 09:01 -37.00680 174.78042 26 ft 7 kts 199°
2026-04-24 09:01 -37.00743 174.78013 29 ft 12 kts 200°
2026-04-24 09:01 -37.00831 174.78026 25 ft 15 kts 161°
2026-04-24 09:02 -37.00942 174.78075 27 ft 19 kts 161°
2026-04-24 09:02 -37.01040 174.78100 26 ft 12 kts 200°
2026-04-24 09:02 -37.01082 174.77999 25 ft 16 kts 252°
2026-04-24 09:02 -37.01120 174.77867 25 ft 17 kts 249°
2026-04-24 09:03 -37.01172 174.77744 28 ft 15 kts 204°
2026-04-24 09:03 -37.01237 174.77756 28 ft 9 kts 162°
2026-04-24 09:03 -37.01309 174.77785 29 ft 13 kts 161°
2026-04-24 09:03 -37.01400 174.77838 28 ft 15 kts 127°
2026-04-24 09:04 -37.01405 174.77900 25 ft 0 kts 70°
2026-04-24 09:04 -37.01397 174.77926 29 ft 22 kts 70°
2026-04-24 09:04 -37.01266 174.78404 27 ft 92 kts 71°
2026-04-24 09:04 -37.00999 174.79371 27 ft 140 kts 72°
2026-04-24 09:05 -37.00680 174.80509 443 ft 144 kts 72°
2026-04-24 09:05 -37.00536 174.81777 988 ft 145 kts 104°
2026-04-24 09:05 -37.01062 174.82816 1542 ft 144 kts 141°
2026-04-24 09:05 -37.02018 174.83252 1984 ft 158 kts 175°
2026-04-24 09:06 -37.03125 174.82844 2255 ft 183 kts 204°
2026-04-24 09:06 -37.04330 174.82088 2654 ft 204 kts 200°
2026-04-24 09:06 -37.05751 174.81549 3248 ft 218 kts 188°
2026-04-24 09:06 -37.07263 174.81304 3787 ft 219 kts 181°
2026-04-24 09:07 -37.08794 174.81242 3959 ft 221 kts 178°
2026-04-24 09:07 -37.10329 174.81269 3995 ft 220 kts 176°
2026-04-24 09:07 -37.13355 174.80943 3998 ft 225 kts 207°
2026-04-24 09:08 -37.14467 174.79557 4323 ft 232 kts 242°
2026-04-24 09:08 -37.15106 174.77649 5031 ft 247 kts 249°
2026-04-24 09:08 -37.15722 174.75534 5668 ft 268 kts 249°
2026-04-24 09:08 -37.16366 174.73315 6621 ft 273 kts 249°
2026-04-24 09:09 -37.17037 174.71068 7574 ft 279 kts 248°
2026-04-24 09:09 -37.17740 174.68769 8487 ft 285 kts 248°
2026-04-24 09:09 -37.18466 174.66428 9460 ft 291 kts 248°
2026-04-24 09:09 -37.19206 174.64056 10345 ft 299 kts 248°
2026-04-24 09:10 -37.20001 174.61508 10770 ft 323 kts 248°
2026-04-24 09:10 -37.20850 174.58786 11155 ft 345 kts 248°
2026-04-24 09:10 -37.21733 174.55942 11902 ft 353 kts 247°
2026-04-24 09:10 -37.22628 174.53052 12764 ft 358 kts 247°
2026-04-24 09:11 -37.23535 174.50120 13608 ft 363 kts 247°
2026-04-24 09:11 -37.24454 174.47149 14413 ft 368 kts 247°
2026-04-24 09:11 -37.25384 174.44140 15184 ft 372 kts 247°
2026-04-24 09:11 -37.26323 174.41098 15941 ft 376 kts 247°
2026-04-24 09:12 -37.27261 174.38058 16679 ft 381 kts 247°
2026-04-24 09:12 -37.28222 174.34940 17414 ft 385 kts 247°
2026-04-24 09:12 -37.29192 174.31787 18142 ft 390 kts 247°
2026-04-24 09:12 -37.30174 174.28594 18835 ft 394 kts 247°
2026-04-24 09:13 -37.31162 174.25373 19506 ft 396 kts 247°
2026-04-24 09:13 -37.32158 174.22126 20173 ft 399 kts 247°
2026-04-24 09:13 -37.33158 174.18861 20836 ft 402 kts 247°
2026-04-24 09:13 -37.34167 174.15561 21472 ft 406 kts 247°
2026-04-24 09:14 -37.35183 174.12238 22109 ft 409 kts 247°
2026-04-24 09:14 -37.36206 174.08886 22752 ft 412 kts 247°
2026-04-24 09:14 -37.37236 174.05507 23377 ft 416 kts 247°
2026-04-24 09:14 -37.38273 174.02102 23986 ft 419 kts 247°
2026-04-24 09:15 -37.39316 173.98671 24489 ft 422 kts 247°
2026-04-24 09:15 -37.40368 173.95209 24994 ft 425 kts 247°
2026-04-24 09:15 -37.41426 173.91720 25487 ft 429 kts 247°
2026-04-24 09:15 -37.42492 173.88202 25970 ft 432 kts 247°
2026-04-24 09:16 -37.43564 173.84657 26445 ft 435 kts 247°
2026-04-24 09:16 -37.44642 173.81090 26899 ft 438 kts 247°
2026-04-24 09:16 -37.45728 173.77492 27350 ft 441 kts 247°
2026-04-24 09:16 -37.46821 173.73867 27778 ft 445 kts 246°
2026-04-24 09:17 -37.47921 173.70211 28201 ft 448 kts 246°
2026-04-24 09:17 -37.49027 173.66532 28602 ft 451 kts 246°
2026-04-24 09:17 -37.50140 173.62826 28990 ft 454 kts 246°
2026-04-24 09:17 -37.51260 173.59091 29361 ft 458 kts 246°
2026-04-24 09:18 -37.52388 173.55324 29721 ft 461 kts 246°
2026-04-24 09:18 -37.53523 173.51528 30076 ft 464 kts 246°
2026-04-24 09:18 -37.54663 173.47709 30430 ft 467 kts 246°
2026-04-24 09:18 -37.55795 173.43914 30741 ft 470 kts 246°
2026-04-24 09:19 -37.56945 173.40050 31090 ft 472 kts 246°
2026-04-24 09:19 -37.58100 173.36168 31423 ft 474 kts 246°
2026-04-24 09:19 -37.59254 173.32281 31834 ft 474 kts 246°
2026-04-24 09:19 -37.60405 173.28396 32283 ft 473 kts 246°
2026-04-24 09:20 -37.61553 173.24517 32734 ft 471 kts 247°
2026-04-24 09:20 -37.62698 173.20644 33172 ft 470 kts 247°
2026-04-24 09:20 -37.63839 173.16784 33613 ft 469 kts 247°
2026-04-24 09:20 -37.64974 173.12937 34048 ft 468 kts 247°
2026-04-24 09:21 -37.66106 173.09097 34442 ft 466 kts 248°
2026-04-24 09:21 -37.67234 173.05263 34782 ft 465 kts 248°
2026-04-24 09:21 -37.68358 173.01435 35099 ft 465 kts 248°
2026-04-24 09:21 -37.69479 172.97614 35407 ft 464 kts 248°
2026-04-24 09:22 -37.70598 172.93795 35714 ft 463 kts 248°
2026-04-24 09:22 -37.71713 172.89982 36017 ft 462 kts 248°
2026-04-24 09:22 -37.72824 172.86175 36316 ft 462 kts 248°
2026-04-24 09:22 -37.73932 172.82377 36601 ft 461 kts 248°
2026-04-24 09:23 -37.75037 172.78579 36930 ft 459 kts 248°
2026-04-24 09:23 -37.76134 172.74805 37250 ft 457 kts 248°
2026-04-24 09:23 -37.77226 172.71047 37569 ft 455 kts 249°
2026-04-24 09:23 -37.78314 172.67301 37887 ft 453 kts 249°
2026-04-24 09:24 -37.79394 172.63573 38197 ft 451 kts 249°
2026-04-24 09:24 -37.80470 172.59857 38343 ft 450 kts 249°
2026-04-24 09:24 -37.82609 172.52442 38358 ft 448 kts 249°
2026-04-24 09:25 -37.84744 172.45020 38358 ft 449 kts 249°
2026-04-24 09:25 -37.86861 172.37640 38360 ft 449 kts 249°
2026-04-24 09:26 -37.88989 172.30204 38360 ft 450 kts 249°
2026-04-24 09:26 -37.91114 172.22756 38356 ft 450 kts 249°
2026-04-24 09:27 -37.93232 172.15306 38356 ft 450 kts 249°
2026-04-24 09:27 -37.95348 172.07841 38353 ft 450 kts 249°
2026-04-24 09:28 -37.97462 172.00364 38355 ft 451 kts 249°
2026-04-24 09:28 -37.99574 171.92876 38358 ft 451 kts 249°
2026-04-24 09:29 -38.01685 171.85371 38359 ft 452 kts 248°
2026-04-24 09:29 -38.03793 171.77858 38366 ft 452 kts 248°
2026-04-24 09:30 -38.05900 171.70331 38364 ft 453 kts 248°
2026-04-24 09:30 -38.07992 171.62833 38375 ft 454 kts 249°
2026-04-24 09:31 -38.10098 171.55262 38380 ft 454 kts 248°
2026-04-24 09:31 -38.12201 171.47684 38381 ft 455 kts 249°
2026-04-24 09:32 -38.14297 171.40101 38374 ft 454 kts 249°
2026-04-24 09:32 -38.16385 171.32529 38377 ft 454 kts 249°
2026-04-24 09:33 -38.18471 171.24943 38377 ft 454 kts 249°
2026-04-24 09:33 -38.20540 171.17397 38375 ft 455 kts 249°
2026-04-24 09:34 -38.22622 171.09780 38381 ft 455 kts 249°
2026-04-24 09:34 -38.24698 171.02175 38377 ft 455 kts 249°
2026-04-24 09:35 -38.26421 170.94403 38386 ft 457 kts 257°
2026-04-24 09:35 -38.27135 170.86394 38383 ft 460 kts 267°
2026-04-24 09:36 -38.27116 170.78240 38385 ft 460 kts 268°
2026-04-24 09:36 -38.27105 170.70093 38385 ft 461 kts 268°
2026-04-24 09:37 -38.27092 170.61934 38386 ft 461 kts 268°
2026-04-24 09:37 -38.27069 170.53773 38386 ft 461 kts 268°
2026-04-24 09:38 -38.27040 170.45604 38380 ft 462 kts 268°
2026-04-24 09:38 -38.27001 170.37434 38393 ft 462 kts 268°
2026-04-24 09:39 -38.26955 170.29258 38398 ft 462 kts 268°
2026-04-24 09:39 -38.26904 170.21077 38399 ft 462 kts 268°
2026-04-24 09:40 -38.26847 170.12948 38403 ft 462 kts 268°
2026-04-24 09:40 -38.26784 170.04770 38407 ft 462 kts 268°
2026-04-24 09:41 -38.26716 169.96587 38405 ft 462 kts 268°
2026-04-24 09:41 -38.26642 169.88406 38406 ft 462 kts 268°
2026-04-24 09:42 -38.26562 169.80225 38406 ft 462 kts 268°
2026-04-24 09:42 -38.26476 169.72050 38408 ft 462 kts 268°
2026-04-24 09:43 -38.26385 169.63869 38414 ft 462 kts 268°
2026-04-24 09:43 -38.26289 169.55749 38413 ft 462 kts 268°
2026-04-24 09:44 -38.26187 169.47583 38410 ft 461 kts 268°
2026-04-24 09:44 -38.26079 169.39418 38414 ft 461 kts 268°
2026-04-24 09:45 -38.25971 169.31652 38411 ft 461 kts 268°
2026-04-24 09:45 -38.25852 169.23490 38412 ft 461 kts 268°
2026-04-24 09:46 -38.25728 169.15341 38409 ft 461 kts 268°
2026-04-24 09:46 -38.25598 169.07185 38411 ft 461 kts 268°
2026-04-24 09:47 -38.25462 168.99032 38413 ft 461 kts 268°
2026-04-24 09:47 -38.25345 168.92259 38415 ft 461 kts 268°
2026-04-24 09:48 -38.25199 168.84102 38417 ft 461 kts 268°
2026-04-24 09:48 -38.25047 168.75953 38417 ft 461 kts 268°
2026-04-24 09:49 -38.24890 168.67805 38416 ft 461 kts 268°
2026-04-24 09:49 -38.24727 168.59653 38420 ft 461 kts 268°
2026-04-24 09:50 -38.24558 168.51497 38423 ft 461 kts 268°
2026-04-24 09:50 -38.24385 168.43398 38423 ft 461 kts 268°
2026-04-24 09:51 -38.24205 168.35252 38428 ft 461 kts 268°
2026-04-24 09:51 -38.24020 168.27103 38423 ft 461 kts 268°
2026-04-24 09:52 -38.23829 168.18953 38432 ft 461 kts 269°
2026-04-24 09:52 -38.23632 168.10799 38432 ft 461 kts 269°
2026-04-24 09:53 -38.23429 168.02649 38431 ft 461 kts 269°
2026-04-24 09:53 -38.23222 167.94506 38432 ft 461 kts 269°
2026-04-24 09:54 -38.23008 167.86365 38433 ft 460 kts 269°
2026-04-24 09:54 -38.22789 167.78231 38434 ft 460 kts 269°
2026-04-24 09:55 -38.22566 167.70125 38436 ft 460 kts 269°
2026-04-24 09:55 -38.22335 167.61983 38436 ft 460 kts 269°
2026-04-24 09:56 -38.22100 167.53841 38438 ft 460 kts 269°
2026-04-24 09:56 -38.21858 167.45709 38436 ft 460 kts 269°
2026-04-24 09:57 -38.21612 167.37577 38438 ft 460 kts 269°
2026-04-24 09:57 -38.21361 167.29506 38439 ft 460 kts 269°
2026-04-24 09:58 -38.21103 167.21382 38441 ft 460 kts 269°
2026-04-24 09:58 -38.20840 167.13261 38440 ft 460 kts 269°
2026-04-24 09:59 -38.20571 167.05138 38445 ft 459 kts 269°
2026-04-24 09:59 -38.20297 166.97021 38444 ft 459 kts 269°
2026-04-24 10:00 -38.20016 166.88895 38446 ft 459 kts 269°
2026-04-24 10:00 -38.19732 166.80828 38441 ft 459 kts 269°
2026-04-24 10:01 -38.19441 166.72711 38447 ft 459 kts 269°
2026-04-24 10:01 -38.19144 166.64596 38435 ft 459 kts 269°
2026-04-24 10:02 -38.18841 166.56480 38451 ft 459 kts 269°
2026-04-24 10:02 -38.18534 166.48370 38449 ft 459 kts 270°
2026-04-24 10:03 -38.18220 166.40267 38453 ft 459 kts 270°
2026-04-24 10:03 -38.17903 166.32209 38455 ft 459 kts 270°
2026-04-24 10:04 -38.17578 166.24100 38451 ft 459 kts 270°
2026-04-24 10:04 -38.17248 166.15979 38452 ft 460 kts 270°
2026-04-24 10:05 -38.16912 166.07864 38462 ft 459 kts 270°
2026-04-24 10:05 -38.16570 165.99752 38464 ft 460 kts 270°
2026-04-24 10:06 -38.16046 165.87573 38468 ft 460 kts 270°
2026-04-24 10:07 -38.15692 165.79497 38468 ft 460 kts 270°
2026-04-24 10:07 -38.15331 165.71375 38470 ft 460 kts 270°
2026-04-24 10:08 -38.14964 165.63262 38464 ft 460 kts 270°
2026-04-24 10:08 -38.14591 165.55137 38481 ft 460 kts 270°
2026-04-24 10:09 -38.14212 165.47021 38485 ft 460 kts 270°
2026-04-24 10:09 -38.13831 165.38962 38475 ft 460 kts 270°
2026-04-24 10:10 -38.13441 165.30840 38479 ft 461 kts 270°
2026-04-24 10:10 -38.13046 165.22715 38481 ft 461 kts 270°
2026-04-24 10:11 -38.12644 165.14586 38484 ft 461 kts 270°
2026-04-24 10:11 -38.12237 165.06461 38479 ft 461 kts 270°
2026-04-24 10:12 -38.11824 164.98323 38481 ft 462 kts 271°
2026-04-24 10:12 -38.11405 164.90186 38491 ft 462 kts 271°
2026-04-24 10:13 -38.10981 164.82049 38482 ft 462 kts 271°
2026-04-24 10:13 -38.10550 164.73894 38490 ft 463 kts 271°
2026-04-24 10:14 -38.10115 164.65786 38486 ft 463 kts 271°
2026-04-24 10:14 -38.09673 164.57631 38495 ft 463 kts 271°
2026-04-24 10:15 -38.09224 164.49451 38497 ft 464 kts 271°
2026-04-24 10:15 -38.08769 164.41283 38500 ft 464 kts 271°
2026-04-24 10:16 -38.08334 164.33553 38494 ft 464 kts 271°
2026-04-24 10:16 -38.07865 164.25327 38504 ft 464 kts 271°
2026-04-24 10:17 -38.07393 164.17147 38503 ft 465 kts 271°
2026-04-24 10:17 -38.06918 164.09022 38503 ft 465 kts 271°
2026-04-24 10:18 -38.06435 164.00842 38510 ft 465 kts 271°
2026-04-24 10:18 -38.05945 163.92658 38506 ft 465 kts 271°
2026-04-24 10:19 -38.05450 163.84471 38509 ft 465 kts 271°
2026-04-24 10:19 -38.04948 163.76282 38511 ft 465 kts 272°
2026-04-24 10:20 -38.04442 163.68101 38506 ft 466 kts 272°
2026-04-24 10:20 -38.03929 163.59906 38511 ft 466 kts 272°
2026-04-24 10:21 -38.03410 163.51717 38518 ft 466 kts 272°
2026-04-24 10:21 -38.02885 163.43513 38512 ft 466 kts 272°
2026-04-24 10:22 -38.02355 163.35322 38515 ft 466 kts 272°
2026-04-24 10:22 -38.01821 163.27121 38518 ft 466 kts 272°
2026-04-24 10:23 -38.01284 163.18920 38518 ft 467 kts 272°
2026-04-24 10:23 -38.00742 163.10717 38518 ft 467 kts 272°
2026-04-24 10:24 -38.00080 163.02579 38521 ft 468 kts 277°
2026-04-24 10:24 -37.98665 162.94498 38524 ft 471 kts 285°
2026-04-24 10:25 -37.96678 162.86586 38521 ft 471 kts 285°
2026-04-24 10:25 -37.94727 162.78652 38525 ft 471 kts 285°
2026-04-24 10:26 -37.92779 162.70733 38525 ft 471 kts 285°
2026-04-24 10:26 -37.90818 162.62799 38526 ft 472 kts 285°
2026-04-24 10:27 -37.88863 162.54918 38527 ft 472 kts 286°
2026-04-24 10:27 -37.86888 162.46993 38530 ft 472 kts 286°
2026-04-24 10:28 -37.84906 162.39076 38531 ft 472 kts 286°
2026-04-24 10:28 -37.82915 162.31154 38531 ft 472 kts 286°
2026-04-24 10:29 -37.80923 162.23250 38536 ft 472 kts 286°
2026-04-24 10:29 -37.78926 162.15353 38533 ft 471 kts 286°
2026-04-24 10:30 -37.76924 162.07461 38534 ft 471 kts 286°
2026-04-24 10:30 -37.74930 161.99625 38531 ft 471 kts 286°
2026-04-24 10:31 -37.72919 161.91748 38535 ft 471 kts 286°
2026-04-24 10:31 -37.70904 161.83879 38530 ft 470 kts 287°
2026-04-24 10:32 -37.68884 161.76015 38528 ft 470 kts 287°
2026-04-24 10:32 -37.66860 161.68161 38531 ft 470 kts 287°
2026-04-24 10:33 -37.64832 161.60312 38529 ft 470 kts 287°
2026-04-24 10:33 -37.63817 161.56393 38305 ft 470 kts 287°
2026-04-24 10:33 -37.62800 161.52483 38548 ft 469 kts 286°
2026-04-24 10:34 -37.60748 161.44587 38533 ft 475 kts 286°
2026-04-24 10:34 -37.58686 161.36684 38531 ft 474 kts 286°
2026-04-24 10:35 -37.56635 161.28847 38536 ft 474 kts 287°
2026-04-24 10:35 -37.54561 161.20946 38534 ft 474 kts 287°
2026-04-24 10:36 -37.52484 161.13057 38535 ft 475 kts 287°
2026-04-24 10:36 -37.50738 161.06448 38538 ft 475 kts 287°
2026-04-24 10:37 -37.48661 160.98603 38540 ft 475 kts 287°
2026-04-24 10:37 -37.46565 160.90711 38544 ft 475 kts 287°
2026-04-24 10:38 -37.44460 160.82811 38542 ft 476 kts 287°
2026-04-24 10:38 -37.42352 160.74924 38542 ft 476 kts 287°
2026-04-24 10:39 -37.40238 160.67038 38546 ft 476 kts 287°
2026-04-24 10:39 -37.38139 160.59233 38544 ft 475 kts 287°
2026-04-24 10:40 -37.36015 160.51359 38543 ft 475 kts 287°
2026-04-24 10:40 -37.33888 160.43495 38537 ft 475 kts 287°
2026-04-24 10:41 -37.31755 160.35636 38538 ft 475 kts 287°
2026-04-24 10:41 -37.29617 160.27780 38539 ft 475 kts 287°
2026-04-24 10:42 -37.27474 160.19928 38537 ft 475 kts 287°
2026-04-24 10:42 -37.25341 160.12138 38538 ft 475 kts 287°
2026-04-24 10:43 -37.23189 160.04303 38536 ft 475 kts 287°
2026-04-24 10:43 -37.21033 159.96474 38536 ft 475 kts 288°
2026-04-24 10:44 -37.18872 159.88650 38536 ft 475 kts 288°
2026-04-24 10:44 -37.16702 159.80820 38540 ft 475 kts 288°
2026-04-24 10:45 -37.14530 159.73002 38534 ft 475 kts 288°
2026-04-24 10:45 -37.12349 159.65175 38533 ft 476 kts 288°
2026-04-24 10:46 -37.10161 159.57347 38537 ft 476 kts 288°
2026-04-24 10:46 -37.07973 159.49541 38538 ft 476 kts 288°
2026-04-24 10:47 -37.05802 159.41819 38542 ft 477 kts 288°
2026-04-24 10:47 -37.03597 159.33997 38545 ft 477 kts 288°
2026-04-24 10:48 -37.01385 159.26177 38545 ft 477 kts 288°
2026-04-24 10:48 -36.99168 159.18357 38549 ft 477 kts 288°
2026-04-24 10:49 -36.96946 159.10544 38545 ft 477 kts 288°
2026-04-24 10:49 -36.94718 159.02735 38544 ft 477 kts 288°
2026-04-24 10:50 -36.92542 158.95125 38541 ft 477 kts 288°
2026-04-24 10:50 -36.90305 158.87327 38544 ft 477 kts 288°
2026-04-24 10:51 -36.88063 158.79532 38535 ft 477 kts 288°
2026-04-24 10:51 -36.85815 158.71743 38537 ft 477 kts 288°
2026-04-24 10:52 -36.83563 158.63958 38533 ft 477 kts 288°
2026-04-24 10:52 -36.81321 158.56230 38533 ft 477 kts 288°
2026-04-24 10:53 -36.79057 158.48449 38535 ft 477 kts 288°
2026-04-24 10:53 -36.76819 158.40779 38533 ft 477 kts 288°
2026-04-24 10:54 -36.74545 158.33007 38532 ft 477 kts 289°
2026-04-24 10:54 -36.72264 158.25234 38539 ft 477 kts 289°
2026-04-24 10:55 -36.69979 158.17467 38531 ft 478 kts 289°
2026-04-24 10:55 -36.67685 158.09694 38536 ft 478 kts 289°
2026-04-24 10:56 -36.65393 158.01946 38540 ft 478 kts 289°
2026-04-24 10:56 -36.63089 157.94182 38543 ft 478 kts 289°
2026-04-24 10:57 -36.60780 157.86420 38532 ft 478 kts 289°
2026-04-24 10:57 -36.58466 157.78666 38538 ft 478 kts 289°
2026-04-24 10:58 -36.56143 157.70903 38535 ft 478 kts 289°
2026-04-24 10:58 -36.53817 157.63149 38533 ft 478 kts 289°
2026-04-24 10:59 -36.51486 157.55400 38530 ft 479 kts 289°
2026-04-24 10:59 -36.49167 157.47715 38531 ft 479 kts 289°
2026-04-24 11:00 -36.46827 157.39979 38534 ft 479 kts 289°
2026-04-24 11:00 -36.44477 157.32232 38535 ft 479 kts 289°
2026-04-24 11:01 -36.42119 157.24479 38539 ft 480 kts 289°
2026-04-24 11:01 -36.39758 157.16738 38537 ft 480 kts 289°
2026-04-24 11:02 -36.37392 157.09001 38538 ft 479 kts 289°
2026-04-24 11:02 -36.35020 157.01268 38537 ft 480 kts 289°
2026-04-24 11:03 -36.32644 156.93539 38532 ft 480 kts 289°
2026-04-24 11:03 -36.30279 156.85869 38539 ft 480 kts 289°
2026-04-24 11:04 -36.27893 156.78151 38534 ft 480 kts 289°
2026-04-24 11:04 -36.25498 156.70424 38528 ft 480 kts 289°
2026-04-24 11:05 -36.23099 156.62704 38532 ft 480 kts 289°
2026-04-24 11:05 -36.20692 156.54982 38532 ft 481 kts 289°
2026-04-24 11:06 -36.18310 156.47360 38529 ft 481 kts 289°
2026-04-24 11:06 -36.15893 156.39645 38526 ft 481 kts 289°
2026-04-24 11:07 -36.12251 156.28059 38527 ft 481 kts 289°
2026-04-24 11:07 -36.09812 156.20326 38528 ft 482 kts 289°
2026-04-24 11:08 -36.07390 156.12665 38526 ft 482 kts 289°
2026-04-24 11:08 -36.04945 156.04955 38523 ft 482 kts 289°
2026-04-24 11:09 -36.02496 155.97251 38528 ft 482 kts 290°
2026-04-24 11:09 -36.00040 155.89544 38527 ft 482 kts 290°
2026-04-24 11:10 -35.97579 155.81845 38525 ft 482 kts 290°
2026-04-24 11:10 -35.95116 155.74158 38524 ft 482 kts 290°
2026-04-24 11:11 -35.92648 155.66474 38518 ft 482 kts 290°
2026-04-24 11:11 -35.90174 155.58794 38523 ft 482 kts 290°
2026-04-24 11:12 -35.87700 155.51132 38517 ft 482 kts 290°
2026-04-24 11:12 -35.85217 155.43463 38516 ft 482 kts 290°
2026-04-24 11:13 -35.82727 155.35793 38520 ft 482 kts 290°
2026-04-24 11:13 -35.80230 155.28120 38519 ft 482 kts 290°
2026-04-24 11:14 -35.77765 155.20564 38517 ft 482 kts 290°
2026-04-24 11:14 -35.75273 155.12947 38519 ft 483 kts 290°
2026-04-24 11:15 -35.72760 155.05285 38522 ft 483 kts 290°
2026-04-24 11:15 -35.70243 154.97619 38523 ft 483 kts 290°
2026-04-24 11:16 -35.67722 154.89956 38525 ft 483 kts 290°
2026-04-24 11:16 -35.65231 154.82402 38526 ft 483 kts 290°
2026-04-24 11:17 -35.62683 154.74751 38523 ft 484 kts 292°
2026-04-24 11:17 -35.59431 154.67506 38522 ft 486 kts 303°
2026-04-24 11:18 -35.55231 154.61006 38518 ft 486 kts 310°
2026-04-24 11:18 -35.50819 154.54710 38520 ft 486 kts 310°
2026-04-24 11:19 -35.46416 154.48402 38515 ft 486 kts 310°
2026-04-24 11:19 -35.42008 154.42110 38515 ft 486 kts 310°
2026-04-24 11:20 -35.37593 154.35826 38513 ft 486 kts 310°
2026-04-24 11:20 -35.33172 154.29545 38511 ft 486 kts 310°
2026-04-24 11:21 -35.28746 154.23268 38512 ft 487 kts 310°
2026-04-24 11:21 -35.24349 154.17043 38506 ft 487 kts 310°
2026-04-24 11:22 -35.19918 154.10782 38510 ft 487 kts 310°
2026-04-24 11:22 -35.15484 154.04528 38507 ft 487 kts 310°
2026-04-24 11:23 -35.11049 153.98285 38505 ft 487 kts 310°
2026-04-24 11:23 -35.06607 153.92043 38517 ft 486 kts 310°
2026-04-24 11:24 -35.02169 153.85817 38506 ft 486 kts 310°
2026-04-24 11:24 -34.98475 153.80643 38515 ft 486 kts 310°
2026-04-24 11:25 -34.94033 153.74433 38495 ft 486 kts 310°
2026-04-24 11:25 -34.89588 153.68228 38495 ft 486 kts 310°
2026-04-24 11:26 -34.85158 153.62056 38492 ft 486 kts 310°
2026-04-24 11:26 -34.80711 153.55871 38486 ft 486 kts 310°
2026-04-24 11:27 -34.76264 153.49698 38493 ft 485 kts 310°
2026-04-24 11:27 -34.71810 153.43526 38497 ft 485 kts 310°
2026-04-24 11:28 -34.67357 153.37367 38484 ft 485 kts 310°
2026-04-24 11:28 -34.62927 153.31249 38486 ft 485 kts 310°
2026-04-24 11:29 -34.58465 153.25098 38493 ft 485 kts 310°
2026-04-24 11:29 -34.54004 153.18959 38478 ft 484 kts 310°
2026-04-24 11:30 -34.51777 153.15899 38182 ft 482 kts 310°
2026-04-24 11:30 -34.49557 153.12850 37540 ft 483 kts 310°
2026-04-24 11:30 -34.47323 153.09784 36718 ft 486 kts 310°
2026-04-24 11:30 -34.45076 153.06703 35821 ft 491 kts 310°
2026-04-24 11:31 -34.42799 153.03583 34889 ft 495 kts 310°
2026-04-24 11:31 -34.40521 153.00464 33930 ft 498 kts 310°
2026-04-24 11:31 -34.38222 152.97322 33039 ft 497 kts 310°
2026-04-24 11:31 -34.35933 152.94196 32162 ft 496 kts 310°
2026-04-24 11:32 -34.33645 152.91074 31292 ft 494 kts 311°
2026-04-24 11:32 -34.31392 152.88001 30401 ft 492 kts 311°
2026-04-24 11:32 -34.29120 152.84905 29403 ft 491 kts 311°
2026-04-24 11:32 -34.26889 152.81869 28610 ft 486 kts 311°
2026-04-24 11:33 -34.24636 152.78806 28030 ft 477 kts 311°
2026-04-24 11:33 -34.22476 152.75872 27459 ft 469 kts 311°
2026-04-24 11:33 -34.20297 152.72914 26867 ft 461 kts 311°
2026-04-24 11:33 -34.18207 152.70079 26311 ft 455 kts 311°
2026-04-24 11:34 -34.16091 152.67211 25751 ft 448 kts 311°
2026-04-24 11:34 -34.14031 152.64421 25159 ft 444 kts 311°
2026-04-24 11:34 -34.11991 152.61659 24569 ft 439 kts 311°
2026-04-24 11:34 -34.10010 152.58834 23490 ft 445 kts 304°
2026-04-24 11:35 -34.08533 152.55548 22489 ft 446 kts 290°
2026-04-24 11:35 -34.07761 152.51963 21819 ft 438 kts 276°
2026-04-24 11:35 -34.07428 152.48381 21160 ft 433 kts 275°
2026-04-24 11:35 -34.07106 152.44799 20482 ft 428 kts 275°
2026-04-24 11:36 -34.06781 152.41241 19796 ft 424 kts 275°
2026-04-24 11:36 -34.06455 152.37721 19155 ft 420 kts 276°
2026-04-24 11:36 -34.06127 152.34239 18486 ft 416 kts 276°
2026-04-24 11:36 -34.05800 152.30796 17768 ft 411 kts 276°
2026-04-24 11:37 -34.05475 152.27397 16946 ft 404 kts 276°
2026-04-24 11:37 -34.05154 152.24055 15943 ft 399 kts 276°
2026-04-24 11:37 -34.04837 152.20748 15005 ft 394 kts 276°
2026-04-24 11:37 -34.04523 152.17489 14051 ft 389 kts 276°
2026-04-24 11:38 -34.04213 152.14270 13102 ft 384 kts 276°
2026-04-24 11:38 -34.03907 152.11094 12159 ft 378 kts 276°
2026-04-24 11:38 -34.03604 152.07965 11243 ft 374 kts 276°
2026-04-24 11:38 -34.03304 152.04889 10699 ft 360 kts 277°
2026-04-24 11:39 -34.03014 152.01985 10471 ft 338 kts 277°
2026-04-24 11:39 -34.02738 151.99256 10277 ft 318 kts 277°
2026-04-24 11:39 -34.02476 151.96677 9867 ft 306 kts 277°
2026-04-24 11:39 -34.02220 151.94150 9310 ft 301 kts 277°
2026-04-24 11:40 -34.01972 151.91695 9040 ft 289 kts 277°
2026-04-24 11:40 -34.01724 151.89253 8970 ft 296 kts 277°
2026-04-24 11:40 -34.01472 151.86785 8967 ft 296 kts 277°
2026-04-24 11:40 -34.01227 151.84373 8966 ft 283 kts 277°
2026-04-24 11:41 -34.00994 151.82082 8968 ft 271 kts 277°
2026-04-24 11:41 -34.00763 151.79823 8969 ft 273 kts 277°
2026-04-24 11:41 -34.00530 151.77550 8968 ft 273 kts 277°
2026-04-24 11:41 -34.00298 151.75288 8967 ft 272 kts 277°
2026-04-24 11:42 -34.00064 151.73022 8970 ft 273 kts 277°
2026-04-24 11:42 -33.99835 151.70804 8966 ft 272 kts 277°
2026-04-24 11:42 -33.99597 151.68496 8972 ft 272 kts 277°
2026-04-24 11:42 -33.99290 151.66248 8966 ft 271 kts 290°
2026-04-24 11:43 -33.98323 151.64338 8969 ft 269 kts 318°
2026-04-24 11:43 -33.96895 151.62890 8961 ft 268 kts 323°
2026-04-24 11:43 -33.95453 151.61492 8793 ft 265 kts 323°
2026-04-24 11:43 -33.94019 151.60100 8495 ft 264 kts 323°
2026-04-24 11:44 -33.92594 151.58712 8167 ft 263 kts 323°
2026-04-24 11:44 -33.91178 151.57332 7839 ft 261 kts 323°
2026-04-24 11:44 -33.89772 151.55964 7514 ft 259 kts 323°
2026-04-24 11:44 -33.88373 151.54606 7201 ft 257 kts 323°
2026-04-24 11:45 -33.87002 151.53277 6892 ft 255 kts 323°
2026-04-24 11:45 -33.85633 151.51947 6687 ft 248 kts 323°
2026-04-24 11:45 -33.84310 151.50658 6467 ft 243 kts 323°
2026-04-24 11:45 -33.82993 151.49375 6112 ft 245 kts 323°
2026-04-24 11:46 -33.81634 151.48056 5993 ft 255 kts 323°
2026-04-24 11:46 -33.80265 151.46730 5962 ft 252 kts 323°
2026-04-24 11:46 -33.78893 151.45401 5967 ft 253 kts 323°
2026-04-24 11:46 -33.77524 151.44073 5974 ft 253 kts 323°
2026-04-24 11:47 -33.76273 151.42597 5965 ft 250 kts 305°
2026-04-24 11:47 -33.75366 151.40849 5969 ft 244 kts 303°
2026-04-24 11:47 -33.74489 151.39118 5813 ft 242 kts 303°
2026-04-24 11:47 -33.73609 151.37384 5515 ft 243 kts 303°
2026-04-24 11:48 -33.72729 151.35654 5224 ft 242 kts 303°
2026-04-24 11:48 -33.71851 151.33931 4912 ft 241 kts 303°
2026-04-24 11:48 -33.70978 151.32214 4623 ft 240 kts 303°
2026-04-24 11:48 -33.70107 151.30502 4338 ft 240 kts 303°
2026-04-24 11:49 -33.69244 151.28798 4065 ft 238 kts 301°
2026-04-24 11:49 -33.68760 151.26909 3765 ft 239 kts 275°
2026-04-24 11:49 -33.68683 151.24916 3497 ft 238 kts 272°
2026-04-24 11:49 -33.68618 151.22975 3411 ft 228 kts 272°
2026-04-24 11:50 -33.68553 151.21110 3328 ft 219 kts 272°
2026-04-24 11:50 -33.68489 151.19300 3154 ft 215 kts 272°
2026-04-24 11:50 -33.68428 151.17515 2983 ft 212 kts 272°
2026-04-24 11:50 -33.68476 151.15742 2974 ft 217 kts 254°
2026-04-24 11:51 -33.69226 151.14250 2971 ft 213 kts 219°
2026-04-24 11:51 -33.70496 151.13383 2972 ft 206 kts 203°
2026-04-24 11:51 -33.71755 151.12698 2964 ft 191 kts 202°
2026-04-24 11:51 -33.73022 151.12263 2982 ft 193 kts 181°
2026-04-24 11:52 -33.74343 151.12365 2967 ft 189 kts 169°
2026-04-24 11:52 -33.75630 151.12668 2970 ft 189 kts 165°
2026-04-24 11:52 -33.76914 151.13006 2971 ft 189 kts 166°
2026-04-24 11:52 -33.78198 151.13337 2945 ft 189 kts 166°
2026-04-24 11:53 -33.79450 151.13661 2778 ft 181 kts 166°
2026-04-24 11:53 -33.80647 151.13971 2509 ft 170 kts 166°
2026-04-24 11:53 -33.81751 151.14256 2283 ft 153 kts 166°
2026-04-24 11:53 -33.82734 151.14511 2077 ft 137 kts 166°
2026-04-24 11:54 -33.83631 151.14744 1885 ft 128 kts 166°
2026-04-24 11:54 -33.84516 151.14975 1723 ft 130 kts 166°
2026-04-24 11:54 -33.85396 151.15203 1542 ft 129 kts 166°
2026-04-24 11:54 -33.86278 151.15432 1386 ft 132 kts 166°
2026-04-24 11:55 -33.87195 151.15673 1371 ft 143 kts 166°
2026-04-24 11:55 -33.88180 151.15927 1109 ft 150 kts 166°
2026-04-24 11:55 -33.89193 151.16205 847 ft 143 kts 167°
2026-04-24 11:55 -33.90115 151.16443 658 ft 129 kts 169°
2026-04-24 11:56 -33.90967 151.16664 476 ft 129 kts 169°
2026-04-24 11:56 -33.91844 151.16890 325 ft 124 kts 171°
2026-04-24 11:56 -33.92651 151.17089 137 ft 117 kts 171°
2026-04-24 11:56 -33.93447 151.17289 19 ft 112 kts 169°
2026-04-24 11:57 -33.93940 151.17418 19 ft 35 kts 166°
2026-04-24 11:57 -33.94184 151.17482 24 ft 30 kts 167°
2026-04-24 11:57 -33.94363 151.17528 24 ft 27 kts 169°
2026-04-24 11:57 -33.94550 151.17571 23 ft 28 kts 170°
2026-04-24 11:58 -33.94745 151.17626 23 ft 29 kts 169°
2026-04-24 11:58 -33.94915 151.17648 22 ft 22 kts 179°
2026-04-24 11:58 -33.95065 151.17634 21 ft 19 kts 192°
2026-04-24 11:58 -33.95133 151.17612 21 ft 11 kts 207°
2026-04-24 11:59 -33.95142 151.17537 21 ft 11 kts 309°
2026-04-24 11:59 -33.95112 151.17519 21 ft 2 kts 344°
2026-04-24 11:59 -33.95080 151.17510 23 ft 7 kts 348°
2026-04-24 11:59 -33.95038 151.17500 21 ft 8 kts 349°
2026-04-24 12:00 -33.94968 151.17483 21 ft 13 kts 348°
2026-04-24 12:00 -33.94882 151.17461 21 ft 7 kts 348°
2026-04-24 12:00 -33.94815 151.17444 21 ft 12 kts 348°
2026-04-24 12:00 -33.94723 151.17420 22 ft 15 kts 347°
2026-04-24 12:01 -33.94606 151.17390 22 ft 19 kts 348°
2026-04-24 12:01 -33.94464 151.17353 24 ft 23 kts 348°
2026-04-24 12:01 -33.94299 151.17308 22 ft 26 kts 346°
2026-04-24 12:01 -33.94113 151.17260 21 ft 29 kts 348°
2026-04-24 12:02 -33.93992 151.17214 22 ft 13 kts 311°
2026-04-24 12:02 -33.93991 151.17137 20 ft 8 kts 255°
2026-04-24 12:02 -33.94009 151.17056 21 ft 12 kts 254°
2026-04-24 12:02 -33.94036 151.16947 21 ft 15 kts 252°
2026-04-24 12:03 -33.94042 151.16818 21 ft 16 kts 311°
2026-04-24 12:03 -33.93976 151.16786 21 ft 9 kts 343°
2026-04-24 12:03 -33.93927 151.16753 21 ft 3 kts 277°
2026-04-24 12:03 -33.93929 151.16709 21 ft 6 kts 263°
2026-04-24 12:04 -33.93932 151.16687 21 ft 2 kts 261°
2026-04-24 12:04 -33.93933 151.16682 21 ft 0 kts 261°